FENGYUN 1C DEB, 30155

Orbit data source: Space-Track

FENGYUN 1C DEB, 30155 is space debris in SSO originally from a launch on Mon, 10 May 1999 UTC launched from the Taiyaun Space Center, China (TSC). Fengyun 1C debris stems from the Chinese weather satellite Fengyun-1C, which was intentionally destroyed by a Chinese anti-satellite missile in 2007. This event dramatically increased the amount of space debris, with thousands of trackable fragments posing hazards to satellites and human spaceflight. The Fengyun 1C debris cloud has become a focal point in discussions about space sustainability and the need for international regulations to prevent the creation of new debris.

Loading next visibility...
Identifier
30155, 1999-025TL
Orbit
SSO
Country
Flag of CNCN / PRC
Related business
Manufacturer
Unknown
Mission
Spacecraft
Bus & Motor
Unknown
Mass
Unknown
Launch date (UTC)
1999-05-10 (27 years ago)
Launch vehicle
Unknown
Launch site
Taiyaun Space Center, China (TSC)
Object type
Payload
Rocket body
Debris
Shape & HBR
Unknown shape, 0.1 m
Radar Cross Section
Medium (>0.1 m² and <1 m²)

Expand to show TLE details & history
Last TLE update: 10 hours ago

TLE from 10 hours ago
0 FENGYUN 1C DEB
1 30155U 99025TL  26169.47099371  .00002262  00000-0  19661-2 0  9990
2 30155  99.7478 252.0019 0239238 219.4193 138.9334 13.74944750964436
Epoch: 2026-06-18T11:18Z
TLE epoch observation values (Epoch: 2026-06-18T11:18:13.856Z)
Latitude
-0°
Longitude
175.73032°
Altitude
1,119.239 km
Speed
7.226 km/s
True Right ascension
16h 48m 00s
True Declination
0° 00' 00"
Sunlit
Object was in full shadow at epoch
Visualization orbit readout
Latitude
Unknown
Longitude
Unknown
Altitude
Unknown
Speed
Unknown
Apparent Right ascension
Unknown
Apparent Declination
Unknown
Sunlit
N/A
Visualization observer readout
Local Sidereal Time
08:35:22
Azimuth
Unknown
Elevation
Unknown
Doppler factor
Unknown
Orbital elements
Apogee altitude
1,155.154 km
Perigee altitude
803.126 km
Semi-major axis
7,357.277 km
Eccentricity
0.02392
Inclination
99.7478°
RAAN
252.0019°
Arg. of periapsis
219.4193°
True anomaly
140.69435°
Mean anomaly
138.9334°
Eccentric anomaly
139.81782°
Mean motion
3.43928 °/min
Orbital period
104.67 mins
BSTAR
0.0019661
Loading maneuver chart data...
Computing Atmospheric mass density...
Loading historical data...
Loading historical data...
Loading historical data...
Loading historical data...
Loading historical data...
Loading historical data...
Loading historical data...

Documentation

Showing up to 5 results
|